カタログに戻る

GEMS2-AMETHYST

運用中科学SSO
NORAD 68505·PAYLOAD·🇺🇸 United States

打ち上げ Mar 30, 2026 から Vandenberg Space Force Base

Loading…

次のパス (今後24時間)

TLE

最新Source: Space-Track

元期: Sep 14, 2026, 03:01 UTC

1 68505U 26067CT  26257.12587230  .00003120  00000-0  31545-3 0  9992
2 68505  97.7696 213.9013 0006880 103.2978 256.9008 14.91709173 24975

AllMySatでGEMS2-AMETHYSTをリアルタイム追跡

Download on the App Store